Location: *
(60.1759°S, 155.0663°W)
Time: 16:50:58
(UTC+00:00)

Cosmos 1733 Rocket - Pass Details

Date: 17 September 2019
Orbit: 604 x 628 km, 82.5° (Epoch: 22 October)

Event Time Altitude Azimuth Distance (km) Brightness Sun altitude
Rises 14:58:48 0° 8° (N) 2,906 6.4 -11.3°
Reaches altitude 10° 15:01:06 10° 14° (NNE) 2,003 5.7 -11.0°
Maximum altitude 15:05:19 44° 86° (E) 869 4.4 -10.5°
Drops below altitude 10° 15:09:33 10° 157° (SSE) 2,013 6.2 -10.0°
Sets 15:11:52 0° 163° (SSE) 2,922 7.0 -9.7°
